Braco do Norte, Brazil
Current Conditions -  °F | °C
As of 7:00 AM on Thursday 23 Oct 2014 (Local Time) from SBCM Reporting Station
Clear Clear  
Wind Chill: 55°   Ceiling: Unl
Heat Index: 55°   Visibility: 6mi
Dew Point: 55°   Wind: 0mph
Humidity: 100%   Direction: NA
Pressure: 30.12"   Gusts: NA
Location:  28.28°S, 49.17°W
Report Text: SBCM 230900Z 00000KT CAVOK 13/13 Q1020
Loading
Personal Weather Stations






























Interactive Weather Map
Tropical Storm Tracking
New forecast layout! Learn more

10-Day Weather Forecast

Advertisements
Track Severe Weather on mobile